Regional Weather Roundup
Issued by NWS

Home | Current Version | Previous Version | Text Only | Print | Product List | Glossary On
Versions: 1 2 3 4 5 6 7 8 9 10 11 12 13 14 15 16 17 18 19 20 21 22 23 24 25 26 27 28 29 30 31 32 33 34 35 36 37 38 39 40 41 42 43 44 45 46 47 48 49 50
000
ASUS43 KLSX 020307
RWRMO

WEATHER SUMMARY FOR MISSOURI
NATIONAL WEATHER SERVICE SPRINGFIELD MO
1000 PM CDT WED OCT 01 2014

NOTE: "FAIR" INDICATES FEW OR NO CLOUDS BELOW 12,000 FEET WITH NO
       SIGNIFICANT WEATHER AND/OR OBSTRUCTIONS TO VISIBILITY.
       CURRENT SKY AND/OR WEATHER CONDITIONS ARE NOT AVAILABLE FOR
       CHILLICOTHE AND FARMINGTON.

MOZ001>031-035>038-043-044-053-054-020400-
...NORTHERN AND WESTERN MISSOURI...

CITY           SKY/WX    TMP DP  RH WIND       PRES   REMARKS
KANSAS CTY INT TSTM      64  64 100 NE10      29.79R
KANSAS C DTWN  TSTM      69  66  90 NW12G28   29.79R FOG
LEE`S SUMMIT   LGT RAIN  68  66  93 CALM      29.78R
ST JOSEPH      LGT RAIN  69  67  93 S10       29.76R
CHILLICOTHE      N/A     67  65  93 E3        29.78F
KIRKSVILLE     CLOUDY    66  65  96 S3        29.80F

$$
MOZ066>068-077>081-088>096-101>105-020400-
...SOUTHWEST MISSOURI...

CITY           SKY/WX    TMP DP  RH WIND       PRES   REMARKS
SPRINGFIELD    PTCLDY    76  66  71 S13       29.81S
JOPLIN         CLEAR     77  66  68 S18       29.77R

$$
MOZ032>034-039>042-045>050-055>058-069>072-020400-
...CENTRAL MISSOURI...

CITY           SKY/WX    TMP DP  RH WIND       PRES   REMARKS
COLUMBIA       CLOUDY    67  66  97 N8        29.85R
ROLLA          CLOUDY    67  62  84 E5        29.84S
SEDALIA        MOCLDY    65  63  93 SE9       29.80F
WHITEMAN AFB   MOCLDY    65  63  94 SE9       29.78R
OSAGE BEACH    MOCLDY    68  61  77 E5        29.82S

$$
MOZ051-052-059>065-020400-
...EAST CENTRAL MISSOURI...

CITY           SKY/WX    TMP DP  RH WIND       PRES   REMARKS
ST LOUIS INTL  CLOUDY    74  65  73 NW12G18   29.86R
SPIRIT OF STL  LGT RAIN  71  67  87 N5        29.85R
ST CHARLES     CLOUDY    69  67  93 NW6       29.86R THUNDER FOG

$$
MOZ072>076-082>087-097>100-106>115-020400-
...SOUTH CENTRAL AND SOUTHEAST MISSOURI...

CITY           SKY/WX    TMP DP  RH WIND       PRES   REMARKS
CAPE GIRARDEAU PTCLDY    73  63  70 S6        29.89R
FARMINGTON     CLOUDY    73  64  73 S7        29.91R
POPLAR BLUFF   PTCLDY    72  64  76 S5        29.87S
WEST PLAINS    CLEAR     73  67  81 S10       29.89S

$$


USA.gov is the U.S. government's official web portal to all federal, state and local government web resources and services.